DC1RS Weather Reports


Display with metric or nautical units.
time (UTC)temp
F
wind
direction
speed
MPH
gust
MPH
rain 1hr
in
rain 24hr
in
rain mn
in
humidity
%
barometer
mb
20260505095021 74 181 1.0 8.0 0.00 0.00 0.00 49 1007.1
20260505094451 74 61 0.0 6.0 0.00 0.00 0.00 49 1007.3
20260505093921 73 140 3.0 7.0 0.00 0.00 0.00 50 1007.1
20260505093421 72 167 2.0 3.0 0.00 0.00 0.00 51 1007.4
20260505092851 72 174 3.0 4.0 0.00 0.00 0.00 53 1007.3
20260505092351 72 42 2.0 2.0 0.00 0.00 0.00 50 1007.5
20260505091851 73 164 3.0 4.0 0.00 0.00 0.00 50 1007.4
20260505091611 72 165 2.0 4.0 0.00 0.00 0.00 53 1007.3
20260505090851 72 155 0.0 2.0 0.00 0.00 0.00 50 1007.7
20260505090350 72 69 3.0 7.0 0.00 0.00 0.00 52 1007.6
20260505085851 71 146 1.0 2.0 0.00 0.00 0.00 54 1007.7
20260505085350 72 178 2.0 3.0 0.00 0.00 0.00 53 1007.7
20260505085110 71 97 2.0 3.0 0.00 0.00 0.00 55 1007.7
20260505084320 70 161 1.0 6.0 0.00 0.00 0.00 54 1007.6
20260505084041 69 211 2.0 3.0 0.00 0.00 0.00 55 1007.7
20260505083250 70 202 1.0 3.0 0.00 0.00 0.00 55 1007.7
20260505082720 70 252 3.0 3.0 0.00 0.00 0.00 55 1007.5
20260505082220 69 127 2.0 3.0 0.00 0.00 0.00 55 1007.9
20260505081942 69 179 1.0 2.0 0.00 0.00 0.00 56 1007.8
20260505081150 68 189 0.0 4.0 0.00 0.00 0.00 57 1007.7
20260505080651 68 155 1.0 2.0 0.00 0.00 0.00 56 1007.9
20260505080150 67 119 1.0 4.0 0.00 0.00 0.00 59 1007.9
20260505075620 67 226 1.0 3.0 0.00 0.00 0.00 58 1007.9
20260505075310 67 300 0.0 2.0 0.00 0.00 0.00 59 1008.0
20260505074550 66 226 1.0 2.0 0.00 0.00 0.00 60 1008.1
20260505074050 66 171 2.0 3.0 0.00 0.00 0.00 59 1008.0
20260505073520 67 181 1.0 4.0 0.00 0.00 0.00 58 1008.0
20260505073211 67 167 1.0 3.0 0.00 0.00 0.00 61 1008.2
20260505072450 66 134 3.0 4.0 0.00 0.00 0.00 59 1008.2
20260505071950 66 175 2.0 3.0 0.00 0.00 0.00 62 1008.2
20260505071450 65 156 1.0 4.0 0.00 0.00 0.00 62 1008.2
20260505070921 65 167 2.0 3.0 0.00 0.00 0.00 62 1008.3
20260505070641 65 163 2.0 3.0 0.00 0.00 0.00 62 1008.2
20260505065851 64 162 2.0 2.0 0.00 0.00 0.00 65 1008.1
20260505065351 63 136 3.0 4.0 0.00 0.00 0.00 66 1008.4
20260505064851 63 164 2.0 7.0 0.00 0.00 0.00 66 1008.5
20260505064321 63 186 1.0 2.0 0.00 0.00 0.00 66 1008.4
20260505063751 63 188 2.0 4.0 0.00 0.00 0.00 66 1008.4
20260505063221 63 174 2.0 3.0 0.00 0.00 0.00 67 1008.4
20260505062651 62 168 2.0 2.0 0.00 0.00 0.00 67 1008.4
20260505062121 61 192 2.0 6.0 0.00 0.00 0.00 68 1008.4
20260505061621 61 161 3.0 4.0 0.00 0.00 0.00 68 1008.3
20260505061340 61 150 2.0 3.0 0.00 0.00 0.00 69 1008.5
20260505060620 61 187 3.0 4.0 0.00 0.00 0.00 68 1008.5
20260505060051 61 137 2.0 6.0 0.00 0.00 0.00 68 1008.5
20260505055521 61 178 1.0 6.0 0.00 0.00 0.00 67 1008.5
20260505054951 61 158 2.0 4.0 0.00 0.00 0.00 67 1008.4
20260505054711 61 169 2.0 7.0 0.00 0.00 0.00 68 1008.3
20260505053921 60 140 3.0 4.0 0.00 0.00 0.00 69 1008.4
20260505053421 60 181 4.0 4.0 0.00 0.00 0.00 71 1008.4
20260505052921 59 187 2.0 3.0 0.00 0.00 0.00 71 1008.3
20260505052421 59 142 2.0 4.0 0.00 0.00 0.00 72 1008.4
20260505051851 58 146 2.0 4.0 0.00 0.00 0.00 73 1008.1
20260505051351 58 126 2.0 2.0 0.00 0.00 0.00 74 1008.4
20260505051110 57 124 2.0 3.0 0.00 0.00 0.00 75 1008.1
20260505050321 56 134 2.0 3.0 0.00 0.00 0.00 76 1008.2
20260505041051 52 160 0.0 0.0 0.00 0.00 0.00 80 1007.9
20260505040551 53 161 0.0 0.0 0.00 0.00 0.00 80 1008.2
20260505040051 53 161 0.0 1.0 0.00 0.00 0.00 79 1008.1
20260505035521 53 86 0.0 1.0 0.00 0.00 0.00 79 1008.3
20260505035240 53 66 2.0 3.0 0.00 0.00 0.00 80 1008.1
20260505034450 53 68 2.0 4.0 0.00 0.00 0.00 80 1008.2
20260505033921 53 59 2.0 4.0 0.00 0.00 0.00 80 1008.2
20260505033421 53 56 2.0 2.0 0.00 0.00 0.00 79 1008.1
20260505032851 53 87 0.0 2.0 0.00 0.00 0.00 78 1008.1
20260505032321 53 76 1.0 2.0 0.00 0.00 0.00 78 1008.3
20260505032041 54 49 0.0 1.0 0.00 0.00 0.00 78 1008.2
20260505031250 54 77 1.0 1.0 0.00 0.00 0.00 77 1008.0
20260505030721 54 75 1.0 1.0 0.00 0.00 0.00 77 1007.9
20260505030220 54 105 0.0 0.0 0.00 0.00 0.00 76 1008.1
20260505025650 55 105 1.0 1.0 0.00 0.00 0.00 75 1007.9
20260505025341 55 140 1.0 1.0 0.00 0.00 0.00 75 1008.1
20260505024620 55 154 0.0 0.0 0.00 0.00 0.00 74 1008.1
20260505024051 56 155 0.0 1.0 0.00 0.00 0.00 73 1007.9
20260505023521 56 154 0.0 0.0 0.00 0.00 0.00 72 1008.2
20260505022950 56 154 1.0 1.0 0.00 0.00 0.00 71 1007.9
20260505022451 57 155 0.0 1.0 0.00 0.00 0.00 71 1007.8
20260505021921 57 181 2.0 4.0 0.00 0.00 0.00 70 1008.1
20260505021350 57 219 1.0 3.0 0.00 0.00 0.00 70 1008.1
20260505020821 57 199 0.0 1.0 0.00 0.00 0.00 71 1008.0
20260505020321 57 190 0.0 2.0 0.00 0.00 0.00 70 1008.0
20260505015751 57 168 1.0 2.0 0.00 0.00 0.00 70 1007.9
20260505015511 57 166 2.0 3.0 0.00 0.00 0.00 70 1007.7
20260505014721 57 175 1.0 2.0 0.00 0.00 0.00 69 1007.9
20260505014151 57 180 2.0 3.0 0.00 0.00 0.00 70 1008.1
20260505013651 57 155 2.0 2.0 0.00 0.00 0.00 70 1007.8
20260505013121 57 142 4.0 6.0 0.00 0.00 0.00 68 1008.0
20260505012842 57 102 3.0 4.0 0.00 0.00 0.00 68 1007.7
20260505012121 57 73 3.0 4.0 0.00 0.00 0.00 68 1008.0
20260505011811 57 81 2.0 2.0 0.00 0.00 0.00 69 1008.1
20260505011051 57 94 1.0 2.0 0.00 0.00 0.00 69 1008.0
20260505010551 58 82 1.0 1.0 0.00 0.00 0.00 69 1008.0
20260505010050 58 68 0.0 1.0 0.00 0.00 0.00 68 1008.0
20260505005520 58 69 1.0 2.0 0.00 0.00 0.00 68 1007.8
20260505005210 58 49 2.0 3.0 0.00 0.00 0.00 68 1008.1
20260505004450 58 92 0.0 2.0 0.00 0.00 0.00 68 1008.0
20260505003921 58 101 2.0 2.0 0.00 0.00 0.00 68 1008.2
20260505003420 58 154 1.0 2.0 0.00 0.00 0.00 67 1008.3
20260505002850 59 80 1.0 2.0 0.00 0.00 0.00 67 1008.5
20260505002541 59 22 1.0 3.0 0.00 0.00 0.00 66 1008.3
20260505001820 59 32 1.0 1.0 0.00 0.00 0.00 66 1008.5
20260505001250 59 11 1.0 1.0 0.00 0.00 0.00 66 1008.6
20260505000750 59 354 1.0 2.0 0.00 0.00 0.00 65 1008.6
20260505000221 59 326 2.0 2.0 0.00 0.00 0.00 66 1008.9
20260504235912 60 15 4.0 8.0 0.00 0.00 0.00 63 1008.7
20260504235121 61 26 2.0 3.0 0.00 0.00 0.00 61 1008.6
20260504234621 61 10 2.0 3.0 0.00 0.00 0.00 60 1008.7
20260504234051 61 251 1.0 3.0 0.00 0.00 0.00 59 1008.8
20260504233521 61 249 3.0 7.0 0.00 0.00 0.00 59 1008.7
20260504233212 61 242 2.0 3.0 0.00 0.00 0.00 59 1008.6
20260504232451 61 274 1.0 7.0 0.00 0.00 0.00 59 1008.8
20260504231921 62 191 2.0 2.0 0.00 0.00 0.00 58 1008.9
20260504231421 62 192 0.0 0.0 0.00 0.00 0.00 58 1008.7
20260504230851 62 199 1.0 2.0 0.00 0.00 0.00 57 1008.7
20260504230541 62 213 4.0 6.0 0.00 0.00 0.00 58 1008.8
20260504225751 61 219 2.0 2.0 0.00 0.00 0.00 59 1009.1
20260504225251 61 98 0.0 1.0 0.00 0.00 0.00 60 1008.8
20260504224721 61 97 0.0 0.0 0.00 0.00 0.00 59 1008.7
20260504224221 61 97 0.0 1.0 0.00 0.00 0.00 59 1008.7
20260504223942 61 98 0.0 1.0 0.00 0.00 0.00 58 1008.7
20260504223221 61 80 1.0 1.0 0.00 0.00 0.00 58 1008.9
20260504222651 62 45 2.0 2.0 0.00 0.00 0.00 58 1008.7
20260504222121 62 32 2.0 2.0 0.00 0.00 0.00 57 1008.9
20260504221621 62 40 1.0 3.0 0.00 0.00 0.00 56 1008.8
20260504221051 62 84 2.0 6.0 0.00 0.00 0.00 56 1008.9
20260504220521 63 123 3.0 4.0 0.00 0.00 0.00 56 1009.0
20260504220021 64 157 3.0 3.0 0.00 0.00 0.00 53 1009.1
20260504215451 64 152 2.0 4.0 0.00 0.00 0.00 52 1008.6
20260504214951 63 176 1.0 3.0 0.00 0.00 0.00 53 1008.7
20260504214421 63 183 2.0 2.0 0.00 0.00 0.00 54 1008.7
20260504214112 64 135 0.0 0.0 0.00 0.00 0.00 53 1008.7
20260504213351 64 135 0.0 1.0 0.00 0.00 0.00 53 1008.6
20260504212851 64 96 0.0 0.0 0.00 0.00 0.00 53 1008.7
20260504212321 65 96 0.0 2.0 0.00 0.00 0.00 51 1008.5
20260504211821 65 314 0.0 1.0 0.00 0.00 0.00 52 1008.6
20260504211542 65 314 0.0 0.0 0.00 0.00 0.00 51 1008.6
20260504210820 66 314 0.0 0.0 0.00 0.00 0.00 50 1008.6
20260504210320 66 314 0.0 0.0 0.00 0.00 0.00 48 1008.7
20260504210041 67 195 0.0 1.0 0.00 0.00 0.00 47 1008.4
20260504205250 67 175 0.0 0.0 0.00 0.00 0.00 46 1008.7
20260504204721 68 175 0.0 2.0 0.00 0.00 0.00 45 1008.7
20260504204220 68 171 2.0 2.0 0.00 0.00 0.00 45 1008.9
20260504203650 68 166 2.0 3.0 0.00 0.00 0.00 45 1008.7
20260504203341 68 210 3.0 6.0 0.00 0.00 0.00 46 1008.7
20260504202620 69 194 2.0 3.0 0.00 0.00 0.00 47 1008.6
20260504202120 69 129 0.0 2.0 0.00 0.00 0.00 46 1008.7
20260504201620 69 158 1.0 2.0 0.00 0.00 0.00 45 1008.6
20260504201050 70 178 2.0 2.0 0.00 0.00 0.00 45 1008.5
20260504200740 70 137 3.0 4.0 0.00 0.00 0.00 44 1008.6
20260504200020 71 108 4.0 7.0 0.00 0.00 0.00 44 1008.5
20260504195937 70 84 6.0 10.0 0.00 0.00 0.00 44 1008.6
20260504194920 71 88 5.0 7.0 0.00 0.00 0.00 45 1008.5
20260504194350 70 35 6.0 7.0 0.00 0.00 0.00 46 1008.5
20260504193850 70 26 5.0 8.0 0.00 0.00 0.00 47 1008.7
20260504193350 70 34 3.0 8.0 0.00 0.00 0.00 47 1008.8
20260504193111 71 32 4.0 8.0 0.00 0.00 0.00 47 1008.6
20260504192320 71 48 6.0 9.0 0.00 0.00 0.00 46 1008.8
20260504191750 71 35 4.0 9.0 0.00 0.00 0.00 46 1008.5
20260504191221 71 17 3.0 4.0 0.00 0.00 0.00 47 1008.7
20260504190650 71 34 2.0 3.0 0.00 0.00 0.00 46 1009.0
20260504190411 71 57 4.0 4.0 0.00 0.00 0.00 46 1008.8
20260504185650 71 39 3.0 6.0 0.00 0.00 0.00 46 1008.6
20260504185120 71 34 3.0 4.0 0.00 0.00 0.00 45 1009.0
20260504184810 71 331 4.0 6.0 0.00 0.00 0.00 44 1008.9
20260504184050 71 328 3.0 4.0 0.00 0.00 0.00 44 1008.9
20260504183550 71 310 3.0 6.0 0.00 0.00 0.00 44 1008.7
20260504183050 71 338 3.0 4.0 0.00 0.00 0.00 44 1008.9
20260504182550 72 305 4.0 4.0 0.00 0.00 0.00 44 1008.9
20260504182311 72 303 5.0 7.0 0.00 0.00 0.00 43 1008.9
20260504181520 72 310 2.0 3.0 0.00 0.00 0.00 43 1008.8
20260504180950 72 324 2.0 4.0 0.00 0.00 0.00 43 1009.0
20260504180451 72 321 2.0 4.0 0.00 0.00 0.00 44 1008.9
20260504175920 72 304 2.0 4.0 0.00 0.00 0.00 44 1009.1
20260504175350 72 297 1.0 4.0 0.00 0.00 0.00 43 1008.9
20260504174850 73 316 0.0 1.0 0.00 0.00 0.00 43 1008.9
20260504174321 73 310 2.0 3.0 0.00 0.00 0.00 42 1008.9
20260504173750 73 317 0.0 2.0 0.00 0.00 0.00 42 1008.8
20260504173510 73 321 2.0 6.0 0.00 0.00 0.00 43 1008.8
20260504172720 73 319 3.0 4.0 0.00 0.00 0.00 42 1008.6
20260504172220 73 317 2.0 3.0 0.00 0.00 0.00 42 1008.6
20260504171650 74 320 2.0 3.0 0.00 0.00 0.00 41 1008.6
20260504171121 75 305 4.0 7.0 0.00 0.00 0.00 39 1009.0
20260504170812 75 301 3.0 7.0 0.00 0.00 0.00 38 1008.9
20260504160220 78 21 0.0 1.0 0.00 0.00 0.00 34 1009.0
20260504151040 78 47 2.0 7.0 0.00 0.00 0.00 35 1009.5
20260504150320 79 15 5.0 7.0 0.00 0.00 0.00 34 1009.5
20260504141121 79 54 2.0 3.0 0.00 0.00 0.00 37 1010.5
20260504140551 79 356 3.0 4.0 0.00 0.00 0.00 36 1010.4
20260504140312 79 21 4.0 6.0 0.00 0.00 0.00 37 1010.4
20260504130221 79 323 1.0 4.0 0.00 0.00 0.00 36 1011.2
20260504120311 79 159 6.0 10.0 0.00 0.00 0.00 36 1012.3
20260504110721 76 193 1.0 1.0 0.00 0.00 0.00 38 1013.0
20260504110412 76 134 3.0 6.0 0.00 0.00 0.00 38 1013.1